Year,Month,Day,Hour,Minute,Value (Times are PST for barometer in hPa)
2021,10,24,00,00,996.34
2021,10,24,00,01,996.41
2021,10,24,00,02,996.38
2021,10,24,00,03,996.34
2021,10,24,00,04,996.31
2021,10,24,00,05,996.31
2021,10,24,00,06,996.31
2021,10,24,00,07,996.28
2021,10,24,00,08,996.28
2021,10,24,00,09,996.28
2021,10,24,00,10,996.28
2021,10,24,00,11,996.21
2021,10,24,00,12,996.14
2021,10,24,00,13,996.11
2021,10,24,00,14,996.07
2021,10,24,00,15,996.04
2021,10,24,00,16,995.97
2021,10,24,00,17,995.97
2021,10,24,00,18,995.97
2021,10,24,00,19,995.90
2021,10,24,00,20,995.90
2021,10,24,00,21,995.90
2021,10,24,00,22,995.90
2021,10,24,00,23,995.87
2021,10,24,00,24,995.84
2021,10,24,00,25,995.80
2021,10,24,00,26,995.80
2021,10,24,00,27,995.73
2021,10,24,00,28,995.73
2021,10,24,00,29,995.77
2021,10,24,00,30,995.73
2021,10,24,00,31,995.70
2021,10,24,00,32,995.67
2021,10,24,00,33,995.67
2021,10,24,00,34,995.67
2021,10,24,00,35,995.63
2021,10,24,00,36,995.67
2021,10,24,00,37,995.63
2021,10,24,00,38,995.56
2021,10,24,00,39,995.46
2021,10,24,00,40,995.43
2021,10,24,00,41,995.36
2021,10,24,00,42,995.40
2021,10,24,00,43,995.29
2021,10,24,00,44,995.29
2021,10,24,00,45,995.33
2021,10,24,00,46,995.26
2021,10,24,00,47,995.23
2021,10,24,00,48,995.23
2021,10,24,00,49,995.19
2021,10,24,00,50,995.23
2021,10,24,00,51,995.19
2021,10,24,00,52,995.23
2021,10,24,00,53,995.26
2021,10,24,00,54,995.19
2021,10,24,00,55,995.16
2021,10,24,00,56,995.16
2021,10,24,00,57,995.16
2021,10,24,00,58,995.16
2021,10,24,00,59,995.16
2021,10,24,01,00,995.12
2021,10,24,01,01,995.12
2021,10,24,01,02,995.09
2021,10,24,01,03,995.09
2021,10,24,01,04,995.06
2021,10,24,01,05,995.02
2021,10,24,01,06,995.06
2021,10,24,01,07,995.02
2021,10,24,01,08,995.02
2021,10,24,01,09,994.99
2021,10,24,01,10,994.96
2021,10,24,01,11,994.89
2021,10,24,01,12,994.96
2021,10,24,01,13,994.96
2021,10,24,01,14,994.89
2021,10,24,01,15,994.82
2021,10,24,01,16,994.82
2021,10,24,01,17,994.89
2021,10,24,01,18,994.82
2021,10,24,01,19,994.85
2021,10,24,01,20,994.79
2021,10,24,01,21,994.79
2021,10,24,01,22,994.79
2021,10,24,01,23,994.75
2021,10,24,01,24,994.75
2021,10,24,01,25,994.75
2021,10,24,01,26,994.79
2021,10,24,01,27,994.85
2021,10,24,01,28,994.79
2021,10,24,01,29,994.72
2021,10,24,01,30,994.72
2021,10,24,01,31,994.68
2021,10,24,01,32,994.68
2021,10,24,01,33,994.65
2021,10,24,01,34,994.65
2021,10,24,01,35,994.65
2021,10,24,01,36,994.62
2021,10,24,01,37,994.62
2021,10,24,01,38,994.55
2021,10,24,01,39,994.55
2021,10,24,01,40,994.55
2021,10,24,01,41,994.55
2021,10,24,01,42,994.48
2021,10,24,01,43,994.48
2021,10,24,01,44,994.41
2021,10,24,01,45,994.41
2021,10,24,01,46,994.31
2021,10,24,01,47,994.28
2021,10,24,01,48,994.28
2021,10,24,01,49,994.28
2021,10,24,01,50,994.18
2021,10,24,01,51,994.04
2021,10,24,01,52,994.04
2021,10,24,01,53,994.11
2021,10,24,01,54,994.04
2021,10,24,01,55,994.04
2021,10,24,01,56,993.97
2021,10,24,01,57,993.91
2021,10,24,01,58,993.94
2021,10,24,01,59,993.91
2021,10,24,02,00,993.91
2021,10,24,02,01,993.84
2021,10,24,02,02,993.87
2021,10,24,02,03,993.91
2021,10,24,02,04,993.87
2021,10,24,02,05,993.91
2021,10,24,02,06,993.84
2021,10,24,02,07,993.77
2021,10,24,02,08,993.74
2021,10,24,02,09,993.80
2021,10,24,02,10,993.77
2021,10,24,02,11,993.74
2021,10,24,02,12,993.77
2021,10,24,02,13,993.74
2021,10,24,02,14,993.77
2021,10,24,02,15,993.77
2021,10,24,02,16,993.77
2021,10,24,02,17,993.74
2021,10,24,02,18,993.74
2021,10,24,02,19,993.74
2021,10,24,02,20,993.70
2021,10,24,02,21,993.67
2021,10,24,02,22,993.63
2021,10,24,02,23,993.60
2021,10,24,02,24,993.53
2021,10,24,02,25,993.47
2021,10,24,02,26,993.47
2021,10,24,02,27,993.53
2021,10,24,02,28,993.50
2021,10,24,02,29,993.50
2021,10,24,02,30,993.47
2021,10,24,02,31,993.53
2021,10,24,02,32,993.47
2021,10,24,02,33,993.50
2021,10,24,02,34,993.40
2021,10,24,02,35,993.40
2021,10,24,02,36,993.36
2021,10,24,02,37,993.30
2021,10,24,02,38,993.26
2021,10,24,02,39,993.23
2021,10,24,02,40,993.26
2021,10,24,02,41,993.26
2021,10,24,02,42,993.22
2021,10,24,02,43,993.13
2021,10,24,02,44,993.09
2021,10,24,02,45,993.06
2021,10,24,02,46,993.09
2021,10,24,02,47,993.06
2021,10,24,02,48,993.06
2021,10,24,02,49,993.03
2021,10,24,02,50,993.03
2021,10,24,02,51,992.99
2021,10,24,02,52,992.92
2021,10,24,02,53,992.92
2021,10,24,02,54,992.96
2021,10,24,02,55,992.92
2021,10,24,02,56,992.92
2021,10,24,02,57,992.86
2021,10,24,02,58,992.82
2021,10,24,02,59,992.75
2021,10,24,03,00,992.69
2021,10,24,03,01,992.62
2021,10,24,03,02,992.62
2021,10,24,03,03,992.58
2021,10,24,03,04,992.55
2021,10,24,03,05,992.52
2021,10,24,03,06,992.52
2021,10,24,03,07,992.58
2021,10,24,03,08,992.55
2021,10,24,03,09,992.55
2021,10,24,03,10,992.48
2021,10,24,03,11,992.45
2021,10,24,03,12,992.35
2021,10,24,03,13,992.31
2021,10,24,03,14,992.28
2021,10,24,03,15,992.18
2021,10,24,03,16,992.18
2021,10,24,03,17,992.21
2021,10,24,03,18,992.28
2021,10,24,03,19,992.25
2021,10,24,03,20,992.28
2021,10,24,03,21,992.25
2021,10,24,03,22,992.21
2021,10,24,03,23,992.11
2021,10,24,03,24,992.08
2021,10,24,03,25,992.01
2021,10,24,03,26,991.91
2021,10,24,03,27,991.87
2021,10,24,03,28,991.84
2021,10,24,03,29,991.81
2021,10,24,03,30,991.77
2021,10,24,03,31,991.70
2021,10,24,03,32,991.64
2021,10,24,03,33,991.57
2021,10,24,03,34,991.57
2021,10,24,03,35,991.50
2021,10,24,03,36,991.53
2021,10,24,03,37,991.53
2021,10,24,03,38,991.53
2021,10,24,03,39,991.57
2021,10,24,03,40,991.53
2021,10,24,03,41,991.50
2021,10,24,03,42,991.43
2021,10,24,03,43,991.40
2021,10,24,03,44,991.37
2021,10,24,03,45,991.33
2021,10,24,03,46,991.33
2021,10,24,03,47,991.33
2021,10,24,03,48,991.30
2021,10,24,03,49,991.33
2021,10,24,03,50,991.26
2021,10,24,03,51,991.23
2021,10,24,03,52,991.20
2021,10,24,03,53,991.20
2021,10,24,03,54,991.20
2021,10,24,03,55,991.20
2021,10,24,03,56,991.16
2021,10,24,03,57,991.09
2021,10,24,03,58,991.03
2021,10,24,03,59,991.03
2021,10,24,04,00,990.99
2021,10,24,04,01,990.93
2021,10,24,04,02,990.89
2021,10,24,04,03,990.86
2021,10,24,04,04,990.79
2021,10,24,04,05,990.79
2021,10,24,04,06,990.79
2021,10,24,04,07,990.82
2021,10,24,04,08,990.89
2021,10,24,04,09,990.89
2021,10,24,04,10,990.82
2021,10,24,04,11,990.82
2021,10,24,04,12,990.79
2021,10,24,04,13,990.72
2021,10,24,04,14,990.62
2021,10,24,04,15,990.55
2021,10,24,04,16,990.55
2021,10,24,04,17,990.52
2021,10,24,04,18,990.55
2021,10,24,04,19,990.52
2021,10,24,04,20,990.42
2021,10,24,04,21,990.35
2021,10,24,04,22,990.20
2021,10,24,04,23,990.08
2021,10,24,04,24,990.08
2021,10,24,04,25,990.08
2021,10,24,04,26,990.04
2021,10,24,04,27,990.04
2021,10,24,04,28,990.04
2021,10,24,04,29,990.04
2021,10,24,04,30,990.01
2021,10,24,04,31,989.94
2021,10,24,04,32,989.94
2021,10,24,04,33,989.91
2021,10,24,04,34,989.88
2021,10,24,04,35,989.81
2021,10,24,04,36,989.77
2021,10,24,04,37,989.71
2021,10,24,04,38,989.64
2021,10,24,04,39,989.57
2021,10,24,04,40,989.54
2021,10,24,04,41,989.43
2021,10,24,04,42,989.33
2021,10,24,04,43,989.23
2021,10,24,04,44,989.20
2021,10,24,04,45,989.20
2021,10,24,04,46,989.27
2021,10,24,04,47,989.33
2021,10,24,04,48,989.44
2021,10,24,04,49,989.47
2021,10,24,04,50,989.47
2021,10,24,04,51,989.50
2021,10,24,04,52,989.60
2021,10,24,04,53,989.64
2021,10,24,04,54,989.60
2021,10,24,04,55,989.57
2021,10,24,04,56,989.54
2021,10,24,04,57,989.47
2021,10,24,04,58,989.44
2021,10,24,04,59,989.37
2021,10,24,05,00,989.33
2021,10,24,05,01,989.30
2021,10,24,05,02,989.23
2021,10,24,05,03,989.20
2021,10,24,05,04,989.20
2021,10,24,05,05,989.16
2021,10,24,05,06,989.23
2021,10,24,05,07,989.23
2021,10,24,05,08,989.20
2021,10,24,05,09,989.20
2021,10,24,05,10,989.16
2021,10,24,05,11,989.13
2021,10,24,05,12,989.03
2021,10,24,05,13,989.03
2021,10,24,05,14,988.93
2021,10,24,05,15,988.83
2021,10,24,05,16,988.72
2021,10,24,05,17,988.61
2021,10,24,05,18,988.52
2021,10,24,05,19,988.52
2021,10,24,05,20,988.49
2021,10,24,05,21,988.39
2021,10,24,05,22,988.39
2021,10,24,05,23,988.32
2021,10,24,05,24,988.25
2021,10,24,05,25,988.22
2021,10,24,05,26,988.08
2021,10,24,05,27,988.11
2021,10,24,05,28,988.10
2021,10,24,05,29,988.01
2021,10,24,05,30,987.98
2021,10,24,05,31,987.88
2021,10,24,05,32,987.84
2021,10,24,05,33,987.73
2021,10,24,05,34,987.64
2021,10,24,05,35,987.64
2021,10,24,05,36,987.67
2021,10,24,05,37,987.61
2021,10,24,05,38,987.67
2021,10,24,05,39,987.63
2021,10,24,05,40,987.51
2021,10,24,05,41,987.54
2021,10,24,05,42,987.44
2021,10,24,05,43,987.54
2021,10,24,05,44,987.57
2021,10,24,05,45,987.57
2021,10,24,05,46,987.57
2021,10,24,05,47,987.54
2021,10,24,05,48,987.57
2021,10,24,05,49,987.61
2021,10,24,05,50,987.54
2021,10,24,05,51,987.51
2021,10,24,05,52,987.51
2021,10,24,05,53,987.51
2021,10,24,05,54,987.40
2021,10,24,05,55,987.30
2021,10,24,05,56,987.23
2021,10,24,05,57,987.12
2021,10,24,05,58,986.99
2021,10,24,05,59,986.86
2021,10,24,06,00,986.76
2021,10,24,06,01,986.62
2021,10,24,06,02,986.59
2021,10,24,06,03,986.56
2021,10,24,06,04,986.52
2021,10,24,06,05,986.49
2021,10,24,06,06,986.45
2021,10,24,06,07,986.32
2021,10,24,06,08,986.35
2021,10,24,06,09,986.39
2021,10,24,06,10,986.32
2021,10,24,06,11,986.29
2021,10,24,06,12,986.22
2021,10,24,06,13,986.18
2021,10,24,06,14,986.15
2021,10,24,06,15,986.12
2021,10,24,06,16,986.05
2021,10,24,06,17,985.98
2021,10,24,06,18,986.02
2021,10,24,06,19,986.02
2021,10,24,06,20,985.95
2021,10,24,06,21,985.91
2021,10,24,06,22,985.88
2021,10,24,06,23,985.84
2021,10,24,06,24,985.71
2021,10,24,06,25,985.64
2021,10,24,06,26,985.54
2021,10,24,06,27,985.51
2021,10,24,06,28,985.44
2021,10,24,06,29,985.37
2021,10,24,06,30,985.41
2021,10,24,06,31,985.41
2021,10,24,06,32,985.44
2021,10,24,06,33,985.44
2021,10,24,06,34,985.47
2021,10,24,06,35,985.47
2021,10,24,06,36,985.44
2021,10,24,06,37,985.37
2021,10,24,06,38,985.30
2021,10,24,06,39,985.27
2021,10,24,06,40,985.27
2021,10,24,06,41,985.24
2021,10,24,06,42,985.24
2021,10,24,06,43,985.20
2021,10,24,06,44,985.17
2021,10,24,06,45,985.20
2021,10,24,06,46,985.10
2021,10,24,06,47,985.13
2021,10,24,06,48,985.10
2021,10,24,06,49,985.17
2021,10,24,06,50,985.13
2021,10,24,06,51,985.13
2021,10,24,06,52,985.17
2021,10,24,06,53,985.17
2021,10,24,06,54,985.10
2021,10,24,06,55,985.03
2021,10,24,06,56,984.83
2021,10,24,06,57,984.76
2021,10,24,06,58,984.69
2021,10,24,06,59,984.66
2021,10,24,07,00,984.63
2021,10,24,07,01,984.69
2021,10,24,07,02,984.69
2021,10,24,07,03,984.63
2021,10,24,07,04,984.63
2021,10,24,07,05,984.63
2021,10,24,07,06,984.66
2021,10,24,07,07,984.69
2021,10,24,07,08,984.73
2021,10,24,07,09,984.69
2021,10,24,07,10,984.69
2021,10,24,07,11,984.66
2021,10,24,07,12,984.63
2021,10,24,07,13,984.63
2021,10,24,07,14,984.69
2021,10,24,07,15,984.76
2021,10,24,07,16,984.80
2021,10,24,07,17,984.83
2021,10,24,07,18,984.83
2021,10,24,07,19,984.83
2021,10,24,07,20,984.80
2021,10,24,07,21,984.63
2021,10,24,07,22,984.55
2021,10,24,07,23,984.39
2021,10,24,07,24,984.25
2021,10,24,07,25,984.14
2021,10,24,07,26,984.02
2021,10,24,07,27,983.95
2021,10,24,07,28,983.88
2021,10,24,07,29,983.95
2021,10,24,07,30,983.98
2021,10,24,07,31,983.92
2021,10,24,07,32,983.88
2021,10,24,07,33,983.85
2021,10,24,07,34,983.78
2021,10,24,07,35,983.75
2021,10,24,07,36,983.75
2021,10,24,07,37,983.68
2021,10,24,07,38,983.64
2021,10,24,07,39,983.54
2021,10,24,07,40,983.54
2021,10,24,07,41,983.51
2021,10,24,07,42,983.48
2021,10,24,07,43,983.44
2021,10,24,07,44,983.48
2021,10,24,07,45,983.44
2021,10,24,07,46,983.41
2021,10,24,07,47,983.41
2021,10,24,07,48,983.41
2021,10,24,07,49,983.44
2021,10,24,07,50,983.51
2021,10,24,07,51,983.51
2021,10,24,07,52,983.51
2021,10,24,07,53,983.44
2021,10,24,07,54,983.37
2021,10,24,07,55,983.27
2021,10,24,07,56,983.20
2021,10,24,07,57,983.07
2021,10,24,07,58,983.04
2021,10,24,07,59,983.00
2021,10,24,08,00,982.97
2021,10,24,08,01,982.90
2021,10,24,08,02,982.90
2021,10,24,08,03,982.88
2021,10,24,08,04,982.97
2021,10,24,08,05,982.93
2021,10,24,08,06,982.93
2021,10,24,08,07,982.87
2021,10,24,08,08,982.90
2021,10,24,08,09,982.83
2021,10,24,08,10,982.87
2021,10,24,08,11,982.80
2021,10,24,08,12,982.80
2021,10,24,08,13,982.76
2021,10,24,08,14,982.80
2021,10,24,08,15,982.76
2021,10,24,08,16,982.80
2021,10,24,08,17,982.70
2021,10,24,08,18,982.73
2021,10,24,08,19,982.66
2021,10,24,08,20,982.59
2021,10,24,08,21,982.63
2021,10,24,08,22,982.66
2021,10,24,08,23,982.63
2021,10,24,08,24,982.63
2021,10,24,08,25,982.59
2021,10,24,08,26,982.59
2021,10,24,08,27,982.63
2021,10,24,08,28,982.59
2021,10,24,08,29,982.53
2021,10,24,08,30,982.48
2021,10,24,08,31,982.39
2021,10,24,08,32,982.39
2021,10,24,08,33,982.43
2021,10,24,08,34,982.39
2021,10,24,08,35,982.46
2021,10,24,08,36,982.53
2021,10,24,08,37,982.55
2021,10,24,08,38,982.46
2021,10,24,08,39,982.46
2021,10,24,08,40,982.49
2021,10,24,08,41,982.49
2021,10,24,08,42,982.59
2021,10,24,08,43,982.63
2021,10,24,08,44,982.59
2021,10,24,08,45,982.56
2021,10,24,08,46,982.56
2021,10,24,08,47,982.59
2021,10,24,08,48,982.49
2021,10,24,08,49,982.49
2021,10,24,08,50,982.43
2021,10,24,08,51,982.39
2021,10,24,08,52,982.39
2021,10,24,08,53,982.32
2021,10,24,08,54,982.32
2021,10,24,08,55,982.26
2021,10,24,08,56,982.32
2021,10,24,08,57,982.29
2021,10,24,08,58,982.22
2021,10,24,08,59,982.26
2021,10,24,09,00,982.15
2021,10,24,09,01,982.15
2021,10,24,09,02,982.19
2021,10,24,09,03,982.19
2021,10,24,09,04,982.26
2021,10,24,09,05,982.36
2021,10,24,09,06,982.36
2021,10,24,09,07,982.32
2021,10,24,09,08,982.29
2021,10,24,09,09,982.29
2021,10,24,09,10,982.32
2021,10,24,09,11,982.39
2021,10,24,09,12,982.46
2021,10,24,09,13,982.53
2021,10,24,09,14,982.49
2021,10,24,09,15,982.53
2021,10,24,09,16,982.49
2021,10,24,09,17,982.46
2021,10,24,09,18,982.39
2021,10,24,09,19,982.39
2021,10,24,09,20,982.32
2021,10,24,09,21,982.26
2021,10,24,09,22,982.26
2021,10,24,09,23,982.22
2021,10,24,09,24,982.22
2021,10,24,09,25,982.22
2021,10,24,09,26,982.29
2021,10,24,09,27,982.32
2021,10,24,09,28,982.36
2021,10,24,09,29,982.39
2021,10,24,09,30,982.46
2021,10,24,09,31,982.39
2021,10,24,09,32,982.39
2021,10,24,09,33,982.43
2021,10,24,09,34,982.36
2021,10,24,09,35,982.39
2021,10,24,09,36,982.36
2021,10,24,09,37,982.36
2021,10,24,09,38,982.39
2021,10,24,09,39,982.43
2021,10,24,09,40,982.39
2021,10,24,09,41,982.36
2021,10,24,09,42,982.39
2021,10,24,09,43,982.43
2021,10,24,09,44,982.39
2021,10,24,09,45,982.43
2021,10,24,09,46,982.43
2021,10,24,09,47,982.43
2021,10,24,09,48,982.36
2021,10,24,09,49,982.36
2021,10,24,09,50,982.29
2021,10,24,09,51,982.21
2021,10,24,09,52,982.09
2021,10,24,09,53,981.95
2021,10,24,09,54,981.84
2021,10,24,09,55,981.71
2021,10,24,09,56,981.71
2021,10,24,09,57,981.65
2021,10,24,09,58,981.61
2021,10,24,09,59,981.55
2021,10,24,10,00,981.44
2021,10,24,10,01,981.31
2021,10,24,10,02,981.21
2021,10,24,10,03,981.17
2021,10,24,10,04,981.10
2021,10,24,10,05,981.10
2021,10,24,10,06,981.10
2021,10,24,10,07,981.07
2021,10,24,10,08,981.00
2021,10,24,10,09,980.97
2021,10,24,10,10,980.87
2021,10,24,10,11,980.80
2021,10,24,10,12,980.69
2021,10,24,10,13,980.53
2021,10,24,10,14,980.50
2021,10,24,10,15,980.46
2021,10,24,10,16,980.51
2021,10,24,10,17,980.61
2021,10,24,10,18,980.73
2021,10,24,10,19,980.87
2021,10,24,10,20,980.91
2021,10,24,10,21,981.04
2021,10,24,10,22,981.14
2021,10,24,10,23,981.14
2021,10,24,10,24,981.14
2021,10,24,10,25,981.10
2021,10,24,10,26,981.07
2021,10,24,10,27,981.00
2021,10,24,10,28,981.00
2021,10,24,10,29,980.93
2021,10,24,10,30,980.83
2021,10,24,10,31,980.79
2021,10,24,10,32,980.70
2021,10,24,10,33,980.66
2021,10,24,10,34,980.73
2021,10,24,10,35,980.73
2021,10,24,10,36,980.70
2021,10,24,10,37,980.62
2021,10,24,10,38,980.53
2021,10,24,10,39,980.50
2021,10,24,10,40,980.46
2021,10,24,10,41,980.29
2021,10,24,10,42,980.29
2021,10,24,10,43,980.29
2021,10,24,10,44,980.33
2021,10,24,10,45,980.29
2021,10,24,10,46,980.36
2021,10,24,10,47,980.29
2021,10,24,10,48,980.29
2021,10,24,10,49,980.22
2021,10,24,10,50,980.16
2021,10,24,10,51,980.12
2021,10,24,10,52,980.12
2021,10,24,10,53,980.16
2021,10,24,10,54,980.22
2021,10,24,10,55,980.26
2021,10,24,10,56,980.26
2021,10,24,10,57,980.29
2021,10,24,10,58,980.39
2021,10,24,10,59,980.46
2021,10,24,11,00,980.43
2021,10,24,11,01,980.43
2021,10,24,11,02,980.46
2021,10,24,11,03,980.43
2021,10,24,11,04,980.39
2021,10,24,11,05,980.29
2021,10,24,11,06,980.33
2021,10,24,11,07,980.33
2021,10,24,11,08,980.22
2021,10,24,11,09,980.26
2021,10,24,11,10,980.26
2021,10,24,11,11,980.36
2021,10,24,11,12,980.39
2021,10,24,11,13,980.47
2021,10,24,11,14,980.56
2021,10,24,11,15,980.63
2021,10,24,11,16,980.70
2021,10,24,11,17,980.83
2021,10,24,11,18,980.90
2021,10,24,11,19,980.90
2021,10,24,11,20,980.95
2021,10,24,11,21,981.04
2021,10,24,11,22,980.94
2021,10,24,11,23,980.90
2021,10,24,11,24,980.83
2021,10,24,11,25,980.73
2021,10,24,11,26,980.70
2021,10,24,11,27,980.50
2021,10,24,11,28,980.43
2021,10,24,11,29,980.46
2021,10,24,11,30,980.36
2021,10,24,11,31,980.26
2021,10,24,11,32,980.26
2021,10,24,11,33,980.33
2021,10,24,11,34,980.29
2021,10,24,11,35,980.36
2021,10,24,11,36,980.39
2021,10,24,11,37,980.36
2021,10,24,11,38,980.39
2021,10,24,11,39,980.50
2021,10,24,11,40,980.53
2021,10,24,11,41,980.60
2021,10,24,11,42,980.63
2021,10,24,11,43,980.63
2021,10,24,11,44,980.53
2021,10,24,11,45,980.39
2021,10,24,11,46,980.33
2021,10,24,11,47,980.23
2021,10,24,11,48,980.34
2021,10,24,11,49,980.43
2021,10,24,11,50,980.39
2021,10,24,11,51,980.29
2021,10,24,11,52,980.22
2021,10,24,11,53,980.26
2021,10,24,11,54,980.09
2021,10,24,11,55,980.09
2021,10,24,11,56,980.06
2021,10,24,11,57,980.02
2021,10,24,11,58,980.09
2021,10,24,11,59,980.06
2021,10,24,12,00,979.99
2021,10,24,12,01,979.99
2021,10,24,12,02,979.99
2021,10,24,12,03,979.95
2021,10,24,12,04,979.95
2021,10,24,12,05,979.99
2021,10,24,12,06,979.95
2021,10,24,12,07,980.02
2021,10,24,12,08,979.95
2021,10,24,12,09,979.95
2021,10,24,12,10,979.91
2021,10,24,12,11,979.82
2021,10,24,12,12,979.78
2021,10,24,12,13,979.82
2021,10,24,12,14,979.78
2021,10,24,12,15,979.82
2021,10,24,12,16,979.92
2021,10,24,12,17,979.85
2021,10,24,12,18,979.85
2021,10,24,12,19,979.82
2021,10,24,12,20,979.89
2021,10,24,12,21,979.82
2021,10,24,12,22,979.78
2021,10,24,12,23,979.82
2021,10,24,12,24,979.82
2021,10,24,12,25,979.78
2021,10,24,12,26,979.78
2021,10,24,12,27,979.75
2021,10,24,12,28,979.72
2021,10,24,12,29,979.72
2021,10,24,12,30,979.65
2021,10,24,12,31,979.72
2021,10,24,12,32,979.72
2021,10,24,12,33,979.66
2021,10,24,12,34,979.78
2021,10,24,12,35,979.68
2021,10,24,12,36,979.72
2021,10,24,12,37,979.72
2021,10,24,12,38,979.78
2021,10,24,12,39,979.72
2021,10,24,12,40,979.78
2021,10,24,12,41,979.82
2021,10,24,12,42,979.89
2021,10,24,12,43,979.83
2021,10,24,12,44,979.92
2021,10,24,12,45,979.89
2021,10,24,12,46,979.95
2021,10,24,12,47,979.92
2021,10,24,12,48,979.92
2021,10,24,12,49,979.89
2021,10,24,12,50,979.93
2021,10,24,12,51,980.07
2021,10,24,12,52,980.16
2021,10,24,12,53,980.26
2021,10,24,12,54,980.29
2021,10,24,12,55,980.29
2021,10,24,12,56,980.33
2021,10,24,12,57,980.39
2021,10,24,12,58,980.53
2021,10,24,12,59,980.70
2021,10,24,13,00,980.77
2021,10,24,13,01,980.73
2021,10,24,13,02,980.73
2021,10,24,13,03,980.66
2021,10,24,13,04,980.70
2021,10,24,13,05,980.62
2021,10,24,13,06,980.46
2021,10,24,13,07,980.43
2021,10,24,13,08,980.18
2021,10,24,13,09,980.50
2021,10,24,13,10,980.77
2021,10,24,13,11,980.73
2021,10,24,13,12,980.59
2021,10,24,13,13,980.50
2021,10,24,13,14,980.70
2021,10,24,13,15,980.83
2021,10,24,13,16,980.83
2021,10,24,13,17,980.72
2021,10,24,13,18,980.53
2021,10,24,13,19,980.33
2021,10,24,13,20,980.33
2021,10,24,13,21,980.50
2021,10,24,13,22,980.46
2021,10,24,13,23,980.39
2021,10,24,13,24,980.21
2021,10,24,13,25,980.06
2021,10,24,13,26,979.94
2021,10,24,13,27,979.72
2021,10,24,13,28,979.46
2021,10,24,13,29,979.55
2021,10,24,13,30,979.72
2021,10,24,13,31,979.78
2021,10,24,13,32,979.85
2021,10,24,13,33,979.89
2021,10,24,13,34,979.85
2021,10,24,13,35,979.92
2021,10,24,13,36,979.92
2021,10,24,13,37,979.85
2021,10,24,13,38,979.89
2021,10,24,13,39,979.82
2021,10,24,13,40,979.72
2021,10,24,13,41,979.65
2021,10,24,13,42,979.60
2021,10,24,13,43,979.41
2021,10,24,13,44,979.31
2021,10,24,13,45,979.24
2021,10,24,13,46,979.16
2021,10,24,13,47,979.07
2021,10,24,13,48,979.04
2021,10,24,13,49,979.14
2021,10,24,13,50,979.51
2021,10,24,13,51,979.99
2021,10,24,13,52,980.39
2021,10,24,13,53,980.78
2021,10,24,13,54,980.87
2021,10,24,13,55,981.00
2021,10,24,13,56,981.07
2021,10,24,13,57,981.14
2021,10,24,13,58,981.17
2021,10,24,13,59,981.25
2021,10,24,14,00,981.38
2021,10,24,14,01,981.34
2021,10,24,14,02,981.31
2021,10,24,14,03,981.38
2021,10,24,14,04,981.38
2021,10,24,14,05,981.38
2021,10,24,14,06,981.34
2021,10,24,14,07,981.31
2021,10,24,14,08,981.16
2021,10,24,14,09,981.07
2021,10,24,14,10,981.00
2021,10,24,14,11,980.97
2021,10,24,14,12,980.96
2021,10,24,14,13,980.83
2021,10,24,14,14,980.79
2021,10,24,14,15,980.66
2021,10,24,14,16,980.63
2021,10,24,14,17,980.60
2021,10,24,14,18,980.63
2021,10,24,14,19,980.63
2021,10,24,14,20,980.63
2021,10,24,14,21,980.60
2021,10,24,14,22,980.56
2021,10,24,14,23,980.39
2021,10,24,14,24,980.43
2021,10,24,14,25,980.50
2021,10,24,14,26,980.56
2021,10,24,14,27,980.60
2021,10,24,14,28,980.64
2021,10,24,14,29,980.73
2021,10,24,14,30,980.77
2021,10,24,14,31,980.83
2021,10,24,14,32,980.83
2021,10,24,14,33,980.80
2021,10,24,14,34,980.70
2021,10,24,14,35,980.66
2021,10,24,14,36,980.60
2021,10,24,14,37,980.50
2021,10,24,14,38,980.46
2021,10,24,14,39,980.43
2021,10,24,14,40,980.36
2021,10,24,14,41,980.36
2021,10,24,14,42,980.43
2021,10,24,14,43,980.43
2021,10,24,14,44,980.53
2021,10,24,14,45,980.63
2021,10,24,14,46,980.70
2021,10,24,14,47,980.70
2021,10,24,14,48,980.63
2021,10,24,14,49,980.56
2021,10,24,14,50,980.53
2021,10,24,14,51,980.53
2021,10,24,14,52,980.50
2021,10,24,14,53,980.53
2021,10,24,14,54,980.60
2021,10,24,14,55,980.60
2021,10,24,14,56,980.64
2021,10,24,14,57,980.73
2021,10,24,14,58,980.77
2021,10,24,14,59,980.70
2021,10,24,15,00,980.70
2021,10,24,15,01,980.77
2021,10,24,15,02,980.73
2021,10,24,15,03,980.73
2021,10,24,15,04,980.70
2021,10,24,15,05,980.73
2021,10,24,15,06,980.77
2021,10,24,15,07,980.83
2021,10,24,15,08,980.90
2021,10,24,15,09,980.90
2021,10,24,15,10,980.90
2021,10,24,15,11,980.90
2021,10,24,15,12,980.83
2021,10,24,15,13,980.87
2021,10,24,15,14,980.70
2021,10,24,15,15,980.50
2021,10,24,15,16,980.43
2021,10,24,15,17,980.39
2021,10,24,15,18,980.39
2021,10,24,15,19,980.43
2021,10,24,15,20,980.53
2021,10,24,15,21,980.64
2021,10,24,15,22,980.73
2021,10,24,15,23,980.90
2021,10,24,15,24,981.04
2021,10,24,15,25,981.22
2021,10,24,15,26,981.31
2021,10,24,15,27,981.31
2021,10,24,15,28,981.41
2021,10,24,15,29,981.44
2021,10,24,15,30,981.48
2021,10,24,15,31,981.44
2021,10,24,15,32,981.44
2021,10,24,15,33,981.51
2021,10,24,15,34,981.58
2021,10,24,15,35,981.58
2021,10,24,15,36,981.61
2021,10,24,15,37,981.58
2021,10,24,15,38,981.55
2021,10,24,15,39,981.55
2021,10,24,15,40,981.58
2021,10,24,15,41,981.51
2021,10,24,15,42,981.44
2021,10,24,15,43,981.41
2021,10,24,15,44,981.34
2021,10,24,15,45,981.31
2021,10,24,15,46,981.41
2021,10,24,15,47,981.51
2021,10,24,15,48,981.61
2021,10,24,15,49,981.58
2021,10,24,15,50,981.55
2021,10,24,15,51,981.65
2021,10,24,15,52,981.58
2021,10,24,15,53,981.51
2021,10,24,15,54,981.44
2021,10,24,15,55,981.48
2021,10,24,15,56,981.48
2021,10,24,15,57,981.51
2021,10,24,15,58,981.48
2021,10,24,15,59,981.48
2021,10,24,16,00,981.55
2021,10,24,16,01,981.61
2021,10,24,16,02,981.61
2021,10,24,16,03,981.55
2021,10,24,16,04,981.55
2021,10,24,16,05,981.51
2021,10,24,16,06,981.58
2021,10,24,16,07,981.65
2021,10,24,16,08,981.68
2021,10,24,16,09,981.71
2021,10,24,16,10,981.71
2021,10,24,16,11,981.68
2021,10,24,16,12,981.65
2021,10,24,16,13,981.61
2021,10,24,16,14,981.65
2021,10,24,16,15,981.61
2021,10,24,16,16,981.71
2021,10,24,16,17,981.65
2021,10,24,16,18,981.65
2021,10,24,16,19,981.65
2021,10,24,16,20,981.61
2021,10,24,16,21,981.58
2021,10,24,16,22,981.58
2021,10,24,16,23,981.55
2021,10,24,16,24,981.58
2021,10,24,16,25,981.58
2021,10,24,16,26,981.61
2021,10,24,16,27,981.61
2021,10,24,16,28,981.58
2021,10,24,16,29,981.58
2021,10,24,16,30,981.55
2021,10,24,16,31,981.58
2021,10,24,16,32,981.58
2021,10,24,16,33,981.55
2021,10,24,16,34,981.58
2021,10,24,16,35,981.65
2021,10,24,16,36,981.65